This is the latest recevied weather packets stored in our database for station/object KG4GJX. If no packets are shown the sender has not sent any weather packets the latest 10 day(s).
| Time | Temp. | Humidity | Pressure | Rain* | Wind** | Luminosity | Snow |
|---|---|---|---|---|---|---|---|
| 1788239987 | 21.67° C | 100% | 1020.3 hPa | 0 mm | - | - | - |
| 1788239325 | 21.67° C | 100% | 1019.9 hPa | 0 mm | - | - | - |
| 1788235362 | 22.22° C | 100% | 1019.9 hPa | 0 mm | - | - | - |
| 1788232720 | 22.78° C | 100% | 1019.9 hPa | 0 mm | - | - | - |
| 1788232058 | 23.33° C | 100% | 1020.3 hPa | 0 mm | - | - | - |
| 1788231395 | 23.33° C | 100% | 1019.9 hPa | 0 mm | - | - | - |
| 1788230073 | 23.33° C | 100% | 1020.3 hPa | 0 mm | - | - | - |
| 1788228750 | 23.89° C | 100% | 1020.3 hPa | 0 mm | - | - | - |
| 1788228088 | 23.89° C | 100% | 1019.9 hPa | 0 mm | - | - | - |
| 1788227426 | 23.89° C | 99% | 1019.9 hPa | 0 mm | - | - | - |
| 1788226763 | 23.89° C | 98% | 1019.9 hPa | 0 mm | - | - | - |
| 1788226100 | 24.44° C | 97% | 1019.6 hPa | 0 mm | - | - | - |
| 1788225438 | 24.44° C | 96% | 1019.6 hPa | 0 mm | - | - | - |
| 1788224775 | 25° C | 96% | 1019.6 hPa | 0 mm | - | - | - |
| 1788224113 | 25° C | 94% | 1019.6 hPa | 0 mm | - | - | - |
| 1788223450 | 25.56° C | 92% | 1019.6 hPa | 0 mm | - | - | - |
| 1788222788 | 26.11° C | 90% | 1019.6 hPa | 0 mm | - | - | - |
| 1788222126 | 26.67° C | 86% | 1019.6 hPa | 0 mm | - | - | - |
| 1788221463 | 27.22° C | 84% | 1019.6 hPa | 0 mm | - | - | - |
| 1788220801 | 27.78° C | 82% | 1019.6 hPa | 0 mm | - | - | - |
| 1788220138 | 29.44° C | 75% | 1019.6 hPa | 0 mm | - | - | - |
| 1788219476 | 30.56° C | 68% | 1019.6 hPa | 0 mm | - | - | - |
| 1788218813 | 32.22° C | 60% | 1019.6 hPa | 0 mm | - | - | - |
| 1788218150 | 32.78° C | 56% | 1019.9 hPa | 0 mm | - | - | - |
| 1788217488 | 33.89° C | 55% | 1019.9 hPa | 0 mm | - | - | - |
* Rain latest hour (hover to see other rain measurements)
** Current wind speed in m/s (hover to see current wind gust speed)